Satellite-Ground Cal/Val Region Overpasses Predictions

Prediction of Satellite NPP Overpassing Cal/Val Region: PacNW

Region Location: (Latitude: 10.00, Longitude: 139.50) to (Latitude: 22.70, Longitude: 165.60).

Table of predicted overpasses for the next 14.0 days since TLE Epoch: 5/1/2016
Interval Starting Time Starting Location Ending Time Ending Location
1 05/01/2016 14:46:50 ( 22.68, 163.48) 05/01/2016 14:50:26 ( 10.00, 160.46)
2 05/02/2016 03:37:25 ( 10.02, 145.63) 05/02/2016 03:41:01 ( 22.70, 142.62)
3 05/02/2016 14:30:57 ( 11.63, 165.59) 05/02/2016 14:31:24 ( 10.05, 165.23)
4 05/02/2016 16:09:19 ( 22.66, 142.85) 05/02/2016 16:12:54 ( 10.04, 139.85)
5 05/03/2016 03:18:23 ( 10.03, 150.38) 05/03/2016 03:21:58 ( 22.65, 147.38)
6 05/03/2016 15:50:17 ( 22.65, 147.60) 05/03/2016 15:53:52 ( 10.03, 144.60)
7 05/04/2016 02:59:22 ( 10.05, 155.14) 05/04/2016 03:02:57 ( 22.67, 152.14)
8 05/04/2016 15:31:15 ( 22.69, 152.37) 05/04/2016 15:34:51 ( 10.01, 149.36)
9 05/05/2016 02:40:20 ( 10.00, 159.90) 05/05/2016 02:43:56 ( 22.68, 156.89)
10 05/05/2016 15:12:13 ( 22.68, 157.12) 05/05/2016 15:15:48 ( 10.05, 154.12)
11 05/06/2016 02:21:18 ( 10.02, 164.65) 05/06/2016 02:24:54 ( 22.70, 161.64)
12 05/06/2016 14:53:12 ( 22.66, 161.87) 05/06/2016 14:56:47 ( 10.04, 158.87)
13 05/07/2016 03:43:47 ( 10.04, 144.03) 05/07/2016 03:47:22 ( 22.66, 141.03)
14 05/07/2016 14:35:22 ( 18.42, 165.59) 05/07/2016 14:37:45 ( 10.02, 163.63)
15 05/07/2016 16:15:39 ( 22.69, 141.27) 05/07/2016 16:17:43 ( 15.42, 139.50)
16 05/08/2016 03:24:45 ( 10.06, 148.78) 05/08/2016 03:28:20 ( 22.68, 145.78)
17 05/08/2016 15:56:38 ( 22.68, 146.02) 05/08/2016 16:00:13 ( 10.06, 143.02)
18 05/09/2016 03:05:43 ( 10.02, 153.55) 05/09/2016 03:09:19 ( 22.70, 150.53)
19 05/09/2016 15:37:36 ( 22.66, 150.77) 05/09/2016 15:41:11 ( 10.04, 147.77)
20 05/10/2016 02:46:41 ( 10.04, 158.30) 05/10/2016 02:50:16 ( 22.66, 155.30)
21 05/10/2016 15:18:34 ( 22.70, 155.53) 05/10/2016 15:22:10 ( 10.02, 152.52)
22 05/11/2016 02:27:40 ( 10.06, 163.05) 05/11/2016 02:31:15 ( 22.68, 160.05)
23 05/11/2016 14:59:33 ( 22.68, 160.29) 05/11/2016 15:03:08 ( 10.06, 157.29)
24 05/12/2016 02:11:18 ( 19.47, 165.60) 05/12/2016 02:12:13 ( 22.70, 164.80)
25 05/12/2016 03:50:07 ( 10.02, 142.44) 05/12/2016 03:53:37 ( 22.35, 139.51)
26 05/12/2016 14:40:31 ( 22.66, 165.04) 05/12/2016 14:44:06 ( 10.04, 162.04)
27 05/12/2016 16:22:01 ( 22.65, 139.66) 05/12/2016 16:22:12 ( 22.01, 139.50)
28 05/13/2016 03:31:06 ( 10.04, 147.19) 05/13/2016 03:34:41 ( 22.66, 144.19)
29 05/13/2016 16:02:59 ( 22.69, 144.43) 05/13/2016 16:06:35 ( 10.01, 141.41)
30 05/14/2016 03:12:03 ( 10.00, 151.96) 05/14/2016 03:15:39 ( 22.68, 148.94)
31 05/14/2016 15:43:57 ( 22.67, 149.18) 05/14/2016 15:47:32 ( 10.05, 146.18)


NCC Satellite Cal/Val Overpasses Prediction Service
